����������;��������(kWh)
2016-05-30 00:00;70,75
2016-05-30 00:15;72,3
2016-05-30 00:30;73,05
2016-05-30 00:45;75,95
2016-05-30 01:00;75,3
2016-05-30 01:15;76,35
2016-05-30 01:30;69,3
2016-05-30 01:45;67,15
2016-05-30 02:00;67,45
2016-05-30 02:15;69,6
2016-05-30 02:30;68,4
2016-05-30 02:45;68,4
2016-05-30 03:00;68,4
2016-05-30 03:15;67,45
2016-05-30 03:30;67,65
2016-05-30 03:45;67
2016-05-30 04:00;66,9
2016-05-30 04:15;66,4
2016-05-30 04:30;65,75
2016-05-30 04:45;64,85
2016-05-30 05:00;65,3
2016-05-30 05:15;66,65
2016-05-30 05:30;65,4
2016-05-30 05:45;70,05
2016-05-30 06:00;69,85
2016-05-30 06:15;67,45
2016-05-30 06:30;71
2016-05-30 06:45;71,6
2016-05-30 07:00;70,75
2016-05-30 07:15;70,8
2016-05-30 07:30;73,85
2016-05-30 07:45;127,65
2016-05-30 08:00;130,45
2016-05-30 08:15;99,25
2016-05-30 08:30;99,4
2016-05-30 08:45;102,15
2016-05-30 09:00;119,4
2016-05-30 09:15;117
2016-05-30 09:30;124,3
2016-05-30 09:45;150,5
2016-05-30 10:00;153,5
2016-05-30 10:15;172,4
2016-05-30 10:30;208,95
2016-05-30 10:45;174,4
2016-05-30 11:00;188,65
2016-05-30 11:15;192,3
2016-05-30 11:30;178,6
2016-05-30 11:45;188,45
2016-05-30 12:00;172,4
2016-05-30 12:15;186,25
2016-05-30 12:30;191,75
2016-05-30 12:45;184,25
2016-05-30 13:00;197,7
2016-05-30 13:15;203,75
2016-05-30 13:30;187,65
2016-05-30 13:45;197,8
2016-05-30 14:00;191,6
2016-05-30 14:15;179,2
2016-05-30 14:30;180,95
2016-05-30 14:45;194,75
2016-05-30 15:00;191,65
2016-05-30 15:15;190,8
2016-05-30 15:30;178,3
2016-05-30 15:45;173,65
2016-05-30 16:00;181,3
2016-05-30 16:15;159,15
2016-05-30 16:30;156,95
2016-05-30 16:45;167,05
2016-05-30 17:00;148,85
2016-05-30 17:15;154,2
2016-05-30 17:30;151,25
2016-05-30 17:45;125,85
2016-05-30 18:00;145
2016-05-30 18:15;142,4
2016-05-30 18:30;133,8
2016-05-30 18:45;131,5
2016-05-30 19:00;148,85
2016-05-30 19:15;126,5
2016-05-30 19:30;119,7
2016-05-30 19:45;118,1
2016-05-30 20:00;115,05
2016-05-30 20:15;103,7
2016-05-30 20:30;100,15
2016-05-30 20:45;109,35
2016-05-30 21:00;108,1
2016-05-30 21:15;109,15
2016-05-30 21:30;102,25
2016-05-30 21:45;95,8
2016-05-30 22:00;89,75
2016-05-30 22:15;86,8
2016-05-30 22:30;86,4
2016-05-30 22:45;84,15
2016-05-30 23:00;88,7
2016-05-30 23:15;84,8
2016-05-30 23:30;88,2
2016-05-30 23:45;92,85
2016-05-31 00:00;78
2016-05-31 00:15;80,3
2016-05-31 00:30;78,95
2016-05-31 00:45;77,3
2016-05-31 01:00;75,6
2016-05-31 01:15;77,5
2016-05-31 01:30;75
2016-05-31 01:45;74,2
2016-05-31 02:00;74,1
2016-05-31 02:15;74,95
2016-05-31 02:30;74,15
2016-05-31 02:45;74,3
2016-05-31 03:00;76,35
2016-05-31 03:15;73,85
2016-05-31 03:30;73,9
2016-05-31 03:45;75,3
2016-05-31 04:00;72,7
2016-05-31 04:15;71,9
2016-05-31 04:30;78,6
2016-05-31 04:45;79,55
2016-05-31 05:00;78,2
2016-05-31 05:15;81,95
2016-05-31 05:30;72
2016-05-31 05:45;76,25
2016-05-31 06:00;76,2
2016-05-31 06:15;76,1
2016-05-31 06:30;80,75
2016-05-31 06:45;76,9
2016-05-31 07:00;77,45
2016-05-31 07:15;81,05
2016-05-31 07:30;78,5
2016-05-31 07:45;137,1
2016-05-31 08:00;119,85
2016-05-31 08:15;94,9
2016-05-31 08:30;109,05
2016-05-31 08:45;109,4
2016-05-31 09:00;108,45
2016-05-31 09:15;122,95
2016-05-31 09:30;117
2016-05-31 09:45;140,45
2016-05-31 10:00;132,8
2016-05-31 10:15;152,35
2016-05-31 10:30;150,2
2016-05-31 10:45;176,6
2016-05-31 11:00;183,75
2016-05-31 11:15;192,9
2016-05-31 11:30;195,25
2016-05-31 11:45;214,2
2016-05-31 12:00;216,35
2016-05-31 12:15;212
2016-05-31 12:30;198,35
2016-05-31 12:45;208,75
2016-05-31 13:00;215,85
2016-05-31 13:15;211,8
2016-05-31 13:30;216,7
2016-05-31 13:45;221,6
2016-05-31 14:00;219,55
2016-05-31 14:15;218,85
2016-05-31 14:30;214,95
2016-05-31 14:45;222,55
2016-05-31 15:00;201,9
2016-05-31 15:15;193,45
2016-05-31 15:30;185,65
2016-05-31 15:45;173,4
2016-05-31 16:00;173,1
2016-05-31 16:15;180,25
2016-05-31 16:30;163,85
2016-05-31 16:45;167,8
2016-05-31 17:00;167,75
2016-05-31 17:15;150,4
2016-05-31 17:30;151,25
2016-05-31 17:45;152,05
2016-05-31 18:00;148,95
2016-05-31 18:15;146,4
2016-05-31 18:30;138,75
2016-05-31 18:45;134,95
2016-05-31 19:00;136,1
2016-05-31 19:15;123,9
2016-05-31 19:30;120,65
2016-05-31 19:45;123,3
2016-05-31 20:00;117,3
2016-05-31 20:15;106,85
2016-05-31 20:30;110,3
2016-05-31 20:45;110,3
2016-05-31 21:00;106,4
2016-05-31 21:15;100,4
2016-05-31 21:30;103,25
2016-05-31 21:45;103,85
2016-05-31 22:00;101,4
2016-05-31 22:15;98,95
2016-05-31 22:30;98,75
2016-05-31 22:45;92,9
2016-05-31 23:00;91,9
2016-05-31 23:15;87,8
2016-05-31 23:30;88,9
2016-05-31 23:45;92,2
2016-06-01 00:00;77,6
2016-06-01 00:15;77,2
2016-06-01 00:30;76,7
2016-06-01 00:45;76,9
2016-06-01 01:00;73,7
2016-06-01 01:15;74,75
2016-06-01 01:30;72,85
2016-06-01 01:45;74,85
2016-06-01 02:00;71,75
2016-06-01 02:15;75,3
2016-06-01 02:30;72,8
2016-06-01 02:45;75,6
2016-06-01 03:00;72,2
2016-06-01 03:15;74,85
2016-06-01 03:30;71,45
2016-06-01 03:45;73,35
2016-06-01 04:00;71,75
2016-06-01 04:15;71,7
2016-06-01 04:30;70,4
2016-06-01 04:45;69,7
2016-06-01 05:00;71,95
2016-06-01 05:15;69,75
2016-06-01 05:30;71,1
2016-06-01 05:45;76,05
2016-06-01 06:00;85,7
2016-06-01 06:15;89,25
2016-06-01 06:30;88,05
2016-06-01 06:45;89,2
2016-06-01 07:00;87,1
2016-06-01 07:15;90,8
2016-06-01 07:30;88,85
2016-06-01 07:45;94,15
2016-06-01 08:00;95,85
2016-06-01 08:15;102,6
2016-06-01 08:30;165,4
2016-06-01 08:45;165,05
2016-06-01 09:00;146,8
2016-06-01 09:15;161,65
2016-06-01 09:30;176,65
2016-06-01 09:45;179,9
2016-06-01 10:00;184,7
2016-06-01 10:15;192,8
2016-06-01 10:30;185,6
2016-06-01 10:45;206,1
2016-06-01 11:00;218,55
2016-06-01 11:15;217
2016-06-01 11:30;241,5
2016-06-01 11:45;271,55
2016-06-01 12:00;263,15
2016-06-01 12:15;240,95
2016-06-01 12:30;249,15
2016-06-01 12:45;245,35
2016-06-01 13:00;253,25
2016-06-01 13:15;262,8
2016-06-01 13:30;267,6
2016-06-01 13:45;261,6
2016-06-01 14:00;254,7
2016-06-01 14:15;252,5
2016-06-01 14:30;250,1
2016-06-01 14:45;241,6
2016-06-01 15:00;238,7
2016-06-01 15:15;230,2
2016-06-01 15:30;216,25
2016-06-01 15:45;226,65
2016-06-01 16:00;213,35
2016-06-01 16:15;203,65
2016-06-01 16:30;203,35
2016-06-01 16:45;207,3
2016-06-01 17:00;194,85
2016-06-01 17:15;185,05
2016-06-01 17:30;200,35
2016-06-01 17:45;196,8
2016-06-01 18:00;180,1
2016-06-01 18:15;170,5
2016-06-01 18:30;166,05
2016-06-01 18:45;167,1
2016-06-01 19:00;168,05
2016-06-01 19:15;150,8
2016-06-01 19:30;142,1
2016-06-01 19:45;139,55
2016-06-01 20:00;130,85
2016-06-01 20:15;122,4
2016-06-01 20:30;125,7
2016-06-01 20:45;117,35
2016-06-01 21:00;120,75
2016-06-01 21:15;113,55
2016-06-01 21:30;116,8
2016-06-01 21:45;112,75
2016-06-01 22:00;116,05
2016-06-01 22:15;109,4
2016-06-01 22:30;109,35
2016-06-01 22:45;110,3
2016-06-01 23:00;106,1
2016-06-01 23:15;102,35
2016-06-01 23:30;100,95
2016-06-01 23:45;102,45
2016-06-02 00:00;89,25
2016-06-02 00:15;82,5
2016-06-02 00:30;83,5
2016-06-02 00:45;81,35
2016-06-02 01:00;80,2
2016-06-02 01:15;82
2016-06-02 01:30;78
2016-06-02 01:45;80,35
2016-06-02 02:00;77,45
2016-06-02 02:15;80,55
2016-06-02 02:30;80,3
2016-06-02 02:45;78,85
2016-06-02 03:00;80,05
2016-06-02 03:15;79
2016-06-02 03:30;77,8
2016-06-02 03:45;80,1
2016-06-02 04:00;77,7
2016-06-02 04:15;77,5
2016-06-02 04:30;77,65
2016-06-02 04:45;76,35
2016-06-02 05:00;77,25
2016-06-02 05:15;77,35
2016-06-02 05:30;76,6
2016-06-02 05:45;93,2
2016-06-02 06:00;101,8
2016-06-02 06:15;121,15
2016-06-02 06:30;127,25
2016-06-02 06:45;117,4
2016-06-02 07:00;112,45
2016-06-02 07:15;115,85
2016-06-02 07:30;124,4
2016-06-02 07:45;179,8
2016-06-02 08:00;159,3
2016-06-02 08:15;141,1
2016-06-02 08:30;154,35
2016-06-02 08:45;152,95
2016-06-02 09:00;146,5
2016-06-02 09:15;162,95
2016-06-02 09:30;179,15
2016-06-02 09:45;178,45
2016-06-02 10:00;187,45
2016-06-02 10:15;193,05
2016-06-02 10:30;193,25
2016-06-02 10:45;200,9
2016-06-02 11:00;216
2016-06-02 11:15;215,1
2016-06-02 11:30;221,25
2016-06-02 11:45;214,75
2016-06-02 12:00;233,8
2016-06-02 12:15;235,6
2016-06-02 12:30;237,7
2016-06-02 12:45;227,9
2016-06-02 13:00;231,2
2016-06-02 13:15;226,7
2016-06-02 13:30;229,5
2016-06-02 13:45;229,4
2016-06-02 14:00;242,2
2016-06-02 14:15;246,5
2016-06-02 14:30;241,55
2016-06-02 14:45;239,4
2016-06-02 15:00;237,1
2016-06-02 15:15;231,05
2016-06-02 15:30;225,25
2016-06-02 15:45;214,55
2016-06-02 16:00;199,45
2016-06-02 16:15;187,25
2016-06-02 16:30;186,8
2016-06-02 16:45;198,35
2016-06-02 17:00;181,5
2016-06-02 17:15;171,65
2016-06-02 17:30;178,55
2016-06-02 17:45;174,8
2016-06-02 18:00;171,1
2016-06-02 18:15;172,5
2016-06-02 18:30;167,55
2016-06-02 18:45;161,9
2016-06-02 19:00;157,65
2016-06-02 19:15;147,25
2016-06-02 19:30;146,05
2016-06-02 19:45;133,05
2016-06-02 20:00;132,1
2016-06-02 20:15;122,9
2016-06-02 20:30;123,2
2016-06-02 20:45;125,65
2016-06-02 21:00;127
2016-06-02 21:15;121,3
2016-06-02 21:30;123,15
2016-06-02 21:45;125,95
2016-06-02 22:00;119,6
2016-06-02 22:15;117,15
2016-06-02 22:30;105,4
2016-06-02 22:45;104,05
2016-06-02 23:00;113,35
2016-06-02 23:15;106,6
2016-06-02 23:30;107,7
2016-06-02 23:45;109,8
2016-06-03 00:00;92,15
2016-06-03 00:15;91,75
2016-06-03 00:30;84,15
2016-06-03 00:45;80,5
2016-06-03 01:00;81,45
2016-06-03 01:15;78,75
2016-06-03 01:30;79,4
2016-06-03 01:45;79,3
2016-06-03 02:00;78,05
2016-06-03 02:15;79,9
2016-06-03 02:30;80
2016-06-03 02:45;79,55
2016-06-03 03:00;78,75
2016-06-03 03:15;81,55
2016-06-03 03:30;79,25
2016-06-03 03:45;79,5
2016-06-03 04:00;79,6
2016-06-03 04:15;79,55
2016-06-03 04:30;78,4
2016-06-03 04:45;79,95
2016-06-03 05:00;77,5
2016-06-03 05:15;78,4
2016-06-03 05:30;79
2016-06-03 05:45;81,55
2016-06-03 06:00;79,8
2016-06-03 06:15;91,35
2016-06-03 06:30;104,4
2016-06-03 06:45;115,7
2016-06-03 07:00;106,1
2016-06-03 07:15;109,2
2016-06-03 07:30;110,7
2016-06-03 07:45;164,9
2016-06-03 08:00;147,9
2016-06-03 08:15;115,5
2016-06-03 08:30;141,85
2016-06-03 08:45;145,5
2016-06-03 09:00;140,3
2016-06-03 09:15;171,55
2016-06-03 09:30;173,1
2016-06-03 09:45;160,65
2016-06-03 10:00;175,35
2016-06-03 10:15;183,45
2016-06-03 10:30;182,35
2016-06-03 10:45;194,3
2016-06-03 11:00;187,8
2016-06-03 11:15;196,95
2016-06-03 11:30;216,15
2016-06-03 11:45;215,25
2016-06-03 12:00;204,8
2016-06-03 12:15;210,8
2016-06-03 12:30;211
2016-06-03 12:45;214,45
2016-06-03 13:00;212,5
2016-06-03 13:15;223,05
2016-06-03 13:30;228,15
2016-06-03 13:45;226,5
2016-06-03 14:00;221,4
2016-06-03 14:15;217,35
2016-06-03 14:30;219,55
2016-06-03 14:45;212,95
2016-06-03 15:00;208,8
2016-06-03 15:15;212,5
2016-06-03 15:30;199,55
2016-06-03 15:45;200,75
2016-06-03 16:00;204,75
2016-06-03 16:15;188,8
2016-06-03 16:30;193,9
2016-06-03 16:45;196,1
2016-06-03 17:00;189,6
2016-06-03 17:15;173,75
2016-06-03 17:30;177,4
2016-06-03 17:45;176,7
2016-06-03 18:00;176,8
2016-06-03 18:15;173,8
2016-06-03 18:30;159,45
2016-06-03 18:45;171,75
2016-06-03 19:00;174,4
2016-06-03 19:15;153,5
2016-06-03 19:30;142,25
2016-06-03 19:45;133,35
2016-06-03 20:00;127,3
2016-06-03 20:15;116,5
2016-06-03 20:30;110,2
2016-06-03 20:45;110,9
2016-06-03 21:00;114,75
2016-06-03 21:15;111,2
2016-06-03 21:30;108,05
2016-06-03 21:45;105,2
2016-06-03 22:00;107,15
2016-06-03 22:15;101,7
2016-06-03 22:30;105,3
2016-06-03 22:45;100,2
2016-06-03 23:00;104
2016-06-03 23:15;98,15
2016-06-03 23:30;100,35
2016-06-03 23:45;101,5
2016-06-04 00:00;97,05
2016-06-04 00:15;96,95
2016-06-04 00:30;95,7
2016-06-04 00:45;90,35
2016-06-04 01:00;76,65
2016-06-04 01:15;77
2016-06-04 01:30;73,9
2016-06-04 01:45;73,2
2016-06-04 02:00;76,85
2016-06-04 02:15;75,55
2016-06-04 02:30;74,3
2016-06-04 02:45;75,8
2016-06-04 03:00;76,05
2016-06-04 03:15;74,5
2016-06-04 03:30;76,45
2016-06-04 03:45;75,1
2016-06-04 04:00;74,9
2016-06-04 04:15;72,4
2016-06-04 04:30;73,6
2016-06-04 04:45;72,9
2016-06-04 05:00;73,55
2016-06-04 05:15;71
2016-06-04 05:30;76,95
2016-06-04 05:45;75,8
2016-06-04 06:00;76,2
2016-06-04 06:15;79,7
2016-06-04 06:30;74,65
2016-06-04 06:45;75,6
2016-06-04 07:00;75,5
2016-06-04 07:15;72,7
2016-06-04 07:30;72,75
2016-06-04 07:45;72,7
2016-06-04 08:00;76,3
2016-06-04 08:15;77,65
2016-06-04 08:30;77,55
2016-06-04 08:45;75,8
2016-06-04 09:00;76,25
2016-06-04 09:15;73,85
2016-06-04 09:30;74,55
2016-06-04 09:45;74,25
2016-06-04 10:00;78,6
2016-06-04 10:15;77,7
2016-06-04 10:30;80,3
2016-06-04 10:45;89,2
2016-06-04 11:00;84,2
2016-06-04 11:15;90,85
2016-06-04 11:30;110,1
2016-06-04 11:45;129,25
2016-06-04 12:00;118,8
2016-06-04 12:15;110,35
2016-06-04 12:30;117,45
2016-06-04 12:45;104,6
2016-06-04 13:00;93,45
2016-06-04 13:15;100,35
2016-06-04 13:30;91,75
2016-06-04 13:45;94,35
2016-06-04 14:00;99,35
2016-06-04 14:15;91,35
2016-06-04 14:30;101,9
2016-06-04 14:45;105,95
2016-06-04 15:00;98,3
2016-06-04 15:15;103,15
2016-06-04 15:30;99,1
2016-06-04 15:45;91,3
2016-06-04 16:00;96,1
2016-06-04 16:15;88,8
2016-06-04 16:30;109,1
2016-06-04 16:45;95,7
2016-06-04 17:00;101,2
2016-06-04 17:15;92,35
2016-06-04 17:30;105,2
2016-06-04 17:45;99,75
2016-06-04 18:00;98,35
2016-06-04 18:15;112,45
2016-06-04 18:30;97,05
2016-06-04 18:45;102,45
2016-06-04 19:00;96,4
2016-06-04 19:15;103,6
2016-06-04 19:30;96
2016-06-04 19:45;100,3
2016-06-04 20:00;92,6
2016-06-04 20:15;103,3
2016-06-04 20:30;96,7
2016-06-04 20:45;104,35
2016-06-04 21:00;100,7
2016-06-04 21:15;115,05
2016-06-04 21:30;104,65
2016-06-04 21:45;109,15
2016-06-04 22:00;93,95
2016-06-04 22:15;97,15
2016-06-04 22:30;86,05
2016-06-04 22:45;95,95
2016-06-04 23:00;92,35
2016-06-04 23:15;96,8
2016-06-04 23:30;91,2
2016-06-04 23:45;101,05
2016-06-05 00:00;81,2
2016-06-05 00:15;89
2016-06-05 00:30;80,8
2016-06-05 00:45;91,25
2016-06-05 01:00;78,25
2016-06-05 01:15;87,9
2016-06-05 01:30;78,2
2016-06-05 01:45;87,45
2016-06-05 02:00;80,05
2016-06-05 02:15;87,85
2016-06-05 02:30;78,1
2016-06-05 02:45;85,05
2016-06-05 03:00;91,5
2016-06-05 03:15;88,2
2016-06-05 03:30;85,3
2016-06-05 03:45;79,9
2016-06-05 04:00;72,9
2016-06-05 04:15;71
2016-06-05 04:30;69,95
2016-06-05 04:45;71,8
2016-06-05 05:00;70,5
2016-06-05 05:15;70,3
2016-06-05 05:30;69,7
2016-06-05 05:45;72,85
2016-06-05 06:00;72,4
2016-06-05 06:15;71,95
2016-06-05 06:30;71,6
2016-06-05 06:45;71,65
2016-06-05 07:00;72,9
2016-06-05 07:15;69,95
2016-06-05 07:30;68,95
2016-06-05 07:45;67,8
2016-06-05 08:00;65,9
2016-06-05 08:15;67,15
2016-06-05 08:30;68,4
2016-06-05 08:45;71,7
2016-06-05 09:00;73,5
2016-06-05 09:15;72,45
2016-06-05 09:30;73,1
2016-06-05 09:45;72,75
2016-06-05 10:00;72,45
2016-06-05 10:15;72,3
2016-06-05 10:30;74,9
2016-06-05 10:45;80,1
2016-06-05 11:00;82,1
2016-06-05 11:15;83,4
2016-06-05 11:30;79,9
2016-06-05 11:45;82,6
2016-06-05 12:00;81,55
2016-06-05 12:15;79,7
2016-06-05 12:30;83,35
2016-06-05 12:45;81,45
2016-06-05 13:00;82,05
2016-06-05 13:15;81,1
2016-06-05 13:30;80,95
2016-06-05 13:45;79,05
2016-06-05 14:00;81,15
2016-06-05 14:15;91,35
2016-06-05 14:30;88,05
2016-06-05 14:45;86,85
2016-06-05 15:00;83,95
2016-06-05 15:15;81,35
2016-06-05 15:30;83,55
2016-06-05 15:45;80,85
2016-06-05 16:00;83,75
2016-06-05 16:15;86,75
2016-06-05 16:30;80,7
2016-06-05 16:45;89,05
2016-06-05 17:00;87,3
2016-06-05 17:15;85,55
2016-06-05 17:30;90,8
2016-06-05 17:45;91,3
2016-06-05 18:00;89,75
2016-06-05 18:15;102,15
2016-06-05 18:30;97,4
2016-06-05 18:45;94,2
2016-06-05 19:00;95,2
2016-06-05 19:15;87,2
2016-06-05 19:30;88,5
2016-06-05 19:45;89,2
2016-06-05 20:00;90,85
2016-06-05 20:15;88,75
2016-06-05 20:30;91,1
2016-06-05 20:45;91
2016-06-05 21:00;88,8
2016-06-05 21:15;91,95
2016-06-05 21:30;90,25
2016-06-05 21:45;87,5
2016-06-05 22:00;81,4
2016-06-05 22:15;82,8
2016-06-05 22:30;82,25
2016-06-05 22:45;84,35
2016-06-05 23:00;93
2016-06-05 23:15;90,4
2016-06-05 23:30;94,2
2016-06-05 23:45;95,7

